Location: Casilda
(33.0440°S, 61.1680°W)
Time: 21:33:27
(UTC-03:00)

ISS - Pass Details

Date: 26 January 2023
Orbit: 413 x 419 km, 51.6° (Epoch: 30 January)

Event Time Altitude Azimuth Distance (km) Brightness Sun altitude
Exits shadow 04:22:49 25° 209° (SSW) 883 -2.0 -21.8°
Drops below altitude 10° 04:25:27 10° 158° (SSE) 1,509 0.0 -21.4°
Sets 04:27:48 0° 144° (SE) 2,378 1.5 -21.1°
